Regional Weather Roundup
Issued by NWS

Home | Current Version | Previous Version | Graphics & Text | Print | Product List | Glossary On
Versions: 1 2 3 4 5 6 7 8 9 10 11 12 13 14 15 16 17 18 19 20 21 22 23 24 25 26 27 28 29 30 31 32 33 34 35 36 37 38 39 40 41 42 43 44 45 46 47 48 49 50
386
ASUS45 KCYS 050610
RWRWY

WYOMING REGIONAL WEATHER ROUNDUP
NATIONAL WEATHER SERVICE CHEYENNE WY
1100 PM MST SUN DEC 04 2016

NOTE:  "FAIR" INDICATES FEW OR NO CLOUDS BELOW 12,000 FEET
WITH NO SIGNIFICANT WEATHER AND/OR OBSTRUCTIONS TO VISIBILITY.

WYZ001-050700-
YELLOWSTONE NATIONAL PARK

CITY           SKY/WX    TMP DP  RH WIND       PRES   REMARKS
LK YELLOWSTONE   N/A     24  20  84 W10G17    29.57R WCI  14
6HR MIN TEMP:  23; 6HR MAX TEMP:  25; 6HR PCP:  0.19;

W YELLOWSTONE  NOT AVBL

$$
WYZ002>013-054>058-071-098>099-050700-
NORTHERN WYOMING

CITY           SKY/WX    TMP DP  RH WIND       PRES   REMARKS
JACKSON        CLOUDY    28  27  93 S23       29.60S WCI  14
CODY           LGT SNOW  30  28  93 N14       29.54R FOG     WCI  20
GREYBULL       LGT SNOW  31  24  75 N7        29.53R WCI  24
6HR MIN TEMP:  31; 6HR MAX TEMP:  36; 6HR PCP: TRACE;

WORLAND        FAIR      24  21  88 CALM      29.49F
6HR MIN TEMP:  23; 6HR MAX TEMP:  33;

SHERIDAN       LGT SNOW  32  29  88 NW17      29.57R FOG     WCI  21
6HR MIN TEMP:  31; 6HR MAX TEMP:  37; 6HR PCP: TRACE;

BUFFALO        CLOUDY    33  19  56 W3        29.50R
6HR MIN TEMP:  32; 6HR MAX TEMP:  42;

GILLETTE       FAIR      35  23  61 SW12      29.50S WCI  27
6HR MIN TEMP:  32; 6HR MAX TEMP:  40;

HULETT         MOCLDY    37  25  60 SW9       29.51F WCI  31
NEWCASTLE      FAIR      36  21  55 E13       29.56F WCI  27

$$
WYZ014>020-022>026-101>103-050700-
CENTRAL WYOMING

CITY           SKY/WX    TMP DP  RH WIND       PRES   REMARKS
BIG PINEY      CLOUDY    28  26  92 SW13      29.68F WCI  17
6HR MIN TEMP:  27; 6HR MAX TEMP:  30; 6HR PCP: TRACE;

PINEDALE       LGT SNOW  28  27  93 MISG      29.69S
DUBOIS         LGT SNOW  30  21  69 W16G26    29.52S WCI  19
LANDER         FAIR      36  25  64 SW26G41   29.55F WCI  24
6HR MIN TEMP:  34; 6HR MAX TEMP:  38;

RIVERTON       FAIR      34  24  67 SW13      29.57F WCI  25
6HR MIN TEMP:  34; 6HR MAX TEMP:  39;

CASPER         FAIR      38  21  50 SW20      29.58F WCI  28
6HR MIN TEMP:  35; 6HR MAX TEMP:  39; 6HR PCP: TRACE;

DOUGLAS        FAIR      41  20  43 W23G33    29.58S
6HR MIN TEMP:  40; 6HR MAX TEMP:  42;


$$
WYZ021-027>030-104>119-050700-
SOUTHERN WYOMING

CITY           SKY/WX    TMP DP  RH WIND       PRES   REMARKS
EVANSTON       LGT SNOW  32  25  75 SW26G35   29.77F WCI  18
6HR MIN TEMP:  31; 6HR MAX TEMP:  35; 6HR PCP: TRACE;

KEMMERER       LGT SNOW  30  28  93 SW22G36   29.73F WCI  17
FORT BRIDGER   CLOUDY    34  28  77 W22G31    29.78F WCI  22
ROCK SPRINGS   FAIR      32  23  69 W25       29.72F WCI  19
6HR MIN TEMP:  32; 6HR MAX TEMP:  35;

DIXON          CLOUDY    36  16  44 S17G25    29.81F WCI  25
RAWLINS        FAIR      34  17  50 SW20G36   29.70S WCI  23
6HR MIN TEMP:  31; 6HR MAX TEMP:  35;

SARATOGA       FAIR      32  19  59 SW10G20   29.74R WCI  24
LARAMIE        MOCLDY    36  16  44 S14G24    29.72S WCI  27
6HR MIN TEMP:  33; 6HR MAX TEMP:  36;

CHEYENNE       FAIR      40  18  41 SW12G18   29.67F WCI  33
6HR MIN TEMP:  38; 6HR MAX TEMP:  42;

TORRINGTON     FAIR      47  18  31 CALM      29.61S
6HR MIN TEMP:  43; 6HR MAX TEMP:  49;

PINE BLUFFS    FAIR      36  18  48 S17       29.67F WCI  25

$$




USA.gov is the U.S. government's official web portal to all federal, state and local government web resources and services.